EW7269 Fredericksburg VA US current weather conditions

sailwx.info

Wind from 270 at 1 knots gusting 3

Air temperature 2.8° C
Dewpoint -2.3° C

Last reported at 2019-Dec-08 15:00 UTC.
Time now 2019-Dec-08 15:52 UTC

Location: N 38°27' W 077°35'.
View on Google Maps.

See reports from other nearby stations

  
Tides and Currents Weather Stations Pressure Air Temp Water Temp Dewpoint Dewpoint Depression Visibility Wind Speed Wind Dir Waves Ship Positions
date/time (UTC)wind fromknots sea level pressurealtimeterstation pressurevisibilityair tempwater tempwave heightnotes
2019-Dec-08 15:00 270 1 gusting 3 2.8
2019-Dec-08 14:55 261 0 gusting 2 2.2
2019-Dec-08 14:50 241 0 gusting 1 2.2
2019-Dec-08 14:45 223 1.7
2019-Dec-08 14:40 201 1.7
2019-Dec-08 14:35 205 1.1
2019-Dec-08 14:30 201 0.6
2019-Dec-08 14:25 193 0.6
2019-Dec-08 14:20 189 -0.0
2019-Dec-08 14:15 182 -0.6
2019-Dec-08 14:10 057 -1.1
2019-Dec-08 14:05 057 -1.1
2019-Dec-08 14:00 057 -1.7
2019-Dec-08 13:55 057 -1.7
2019-Dec-08 13:50 057 -2.2
2019-Dec-08 13:45 057 -2.2
2019-Dec-08 13:40 056 -2.8
2019-Dec-08 13:35 057 -3.3
2019-Dec-08 13:30 056 -3.3
2019-Dec-08 13:25 057 -3.3
2019-Dec-08 13:20 057 -3.9
2019-Dec-08 13:15 057 -3.9
2019-Dec-08 13:10 057 -3.9
2019-Dec-08 13:05 057 -4.4
2019-Dec-08 13:00 057 -4.4
2019-Dec-08 12:55 057 -4.4
2019-Dec-08 12:50 057 -5.0
2019-Dec-08 12:45 -5.0
2019-Dec-08 12:40 -5.0
2019-Dec-08 12:35 056 -5.0
2019-Dec-08 12:30 057 -5.0
2019-Dec-08 12:25 057 -5.0
2019-Dec-08 12:20 057 -5.0
2019-Dec-08 12:15 057 -5.0
2019-Dec-08 12:10 -5.0
2019-Dec-08 12:05 -5.0
2019-Dec-08 12:00 -5.0
2019-Dec-08 11:55 -5.0
2019-Dec-08 11:50 057 -5.0
2019-Dec-08 11:45 057 -5.0
2019-Dec-08 11:40 057 -5.6
2019-Dec-08 11:35 057 -5.6
2019-Dec-08 11:30 057 -5.6
2019-Dec-08 11:25 057 -5.6
2019-Dec-08 11:20 057 -5.6
2019-Dec-08 11:15 057 -5.6
2019-Dec-08 11:10 057 -5.6
2019-Dec-08 11:05 057 -5.6
2019-Dec-08 11:00 057 -5.6
2019-Dec-08 10:55 -6.1
2019-Dec-08 10:50 057 -6.1
2019-Dec-08 10:45 057 0 gusting 0 -5.6
2019-Dec-08 10:40 057 -5.6
2019-Dec-08 10:35 -5.6
2019-Dec-08 10:30 -5.6
2019-Dec-08 10:25 057 -5.6
2019-Dec-08 10:20 -5.6
2019-Dec-08 10:15 057 -5.6
2019-Dec-08 10:10 057 -5.6
2019-Dec-08 10:05 057 -5.0
2019-Dec-08 10:00 057 -5.0
2019-Dec-08 09:55 057 -5.0
2019-Dec-08 09:50 -5.0
2019-Dec-08 09:45 -5.0
2019-Dec-08 09:40 -5.0
2019-Dec-08 09:35 -5.0
2019-Dec-08 09:30 -5.0
2019-Dec-08 09:25 -5.0
2019-Dec-08 09:20 -5.0
2019-Dec-08 09:15 -5.0
2019-Dec-08 09:10 -4.4
2019-Dec-08 09:05 -4.4
2019-Dec-08 09:00 -4.4
2019-Dec-08 08:55 -4.4
2019-Dec-08 08:50 057 -4.4
2019-Dec-08 08:45 -5.0
2019-Dec-08 08:40 057 -4.4
2019-Dec-08 08:35 057 -4.4
2019-Dec-08 08:30 056 -4.4
2019-Dec-08 08:25 057 -4.4
2019-Dec-08 08:20 057 -4.4
2019-Dec-08 08:15 057 -4.4
2019-Dec-08 08:10 057 -4.4
2019-Dec-08 08:05 057 -4.4
2019-Dec-08 08:00 058 -4.4
2019-Dec-08 07:55 058 -3.9
2019-Dec-08 07:50 058 -4.4
2019-Dec-08 07:45 057 -4.4
2019-Dec-08 07:40 057 -4.4
2019-Dec-08 07:35 057 -4.4
2019-Dec-08 07:25 057 -4.4
2019-Dec-08 07:20 057 0 gusting 0 -4.4
2019-Dec-08 07:15 058 -4.4
2019-Dec-08 07:10 058 -4.4
2019-Dec-08 07:05 058 -3.9
2019-Dec-08 07:00 058 -3.9
2019-Dec-08 06:55 058 -3.9
2019-Dec-08 06:50 058 -3.9
2019-Dec-08 06:45 -3.9
2019-Dec-08 06:40 058 -3.9
2019-Dec-08 06:35 058 -3.9
2019-Dec-08 06:30 058 -4.4
2019-Dec-08 06:25 058 -4.4
2019-Dec-08 06:20 058 -3.9
2019-Dec-08 06:15 058 -3.9
2019-Dec-08 06:10 058 -3.9
2019-Dec-08 06:05 -3.9
2019-Dec-08 06:00 058 -3.9
2019-Dec-08 05:55 058 -3.9
2019-Dec-08 05:50 058 -3.3
2019-Dec-08 05:45 -3.9
2019-Dec-08 05:40 058 -3.9
2019-Dec-08 05:35 059 -3.9
2019-Dec-08 05:30 -3.9
2019-Dec-08 05:25 -3.9
2019-Dec-08 05:20 058 -3.3
2019-Dec-08 05:15 058 -3.3
2019-Dec-08 05:10 058 -3.3
2019-Dec-08 05:05 058 -2.8
2019-Dec-08 05:00 -2.8
2019-Dec-08 04:55 -2.8
2019-Dec-08 04:50 -2.8
2019-Dec-08 04:45 059 -2.8
2019-Dec-08 04:40 -2.8
2019-Dec-08 04:35 -2.8
2019-Dec-08 04:30 -2.8
2019-Dec-08 04:25 -2.8
2019-Dec-08 04:20 -2.8
2019-Dec-08 04:15 -2.2
2019-Dec-08 04:10 -2.8
2019-Dec-08 04:05 -2.8
2019-Dec-08 04:00 058 -2.2
2019-Dec-08 03:55 058 -2.2
2019-Dec-08 03:50 058 -1.7
2019-Dec-08 03:45 -1.7
2019-Dec-08 03:40 -2.2
2019-Dec-08 03:35 -2.2
2019-Dec-08 03:30 -2.8
2019-Dec-08 03:25 -2.8
2019-Dec-08 03:20 -2.8
2019-Dec-08 03:15 -2.2
2019-Dec-08 03:10 -2.2
2019-Dec-08 03:05 -2.2
2019-Dec-08 03:00 -2.2
2019-Dec-08 02:55 -1.7
2019-Dec-08 02:50 -2.2
2019-Dec-08 02:45 -2.2
2019-Dec-08 02:40 -2.2
2019-Dec-08 02:35 -2.2
2019-Dec-08 02:30 -2.2
2019-Dec-08 02:25 -1.7
2019-Dec-08 02:20 -1.7
2019-Dec-08 02:15 -1.1
2019-Dec-08 02:10 059 -1.1
2019-Dec-08 02:05 059 -1.1
2019-Dec-08 02:00 -1.1
2019-Dec-08 01:55 059 -1.7
2019-Dec-08 01:50 -1.7
2019-Dec-08 01:45 -1.7
2019-Dec-08 01:40 -1.7
2019-Dec-08 01:35 059 -1.1
2019-Dec-08 01:30 059 -0.6
2019-Dec-08 01:25 -0.6
2019-Dec-08 01:20 -0.6
2019-Dec-08 01:15 -0.6
2019-Dec-08 01:10 -0.6
2019-Dec-08 01:05 -0.6
2019-Dec-08 01:00 059 -0.6
2019-Dec-08 00:55 -0.6
2019-Dec-08 00:50 -0.6
2019-Dec-08 00:45 -0.0
2019-Dec-08 00:40 -0.0
2019-Dec-08 00:35 0.6
2019-Dec-08 00:30 -0.0
2019-Dec-08 00:25 0.6
2019-Dec-08 00:20 0.6
2019-Dec-08 00:15 0.6
2019-Dec-08 00:10 0.6
2019-Dec-08 00:05 -0.0
2019-Dec-08 00:00 -0.6
2019-Dec-07 23:55 -0.6
2019-Dec-07 23:50 -0.6
2019-Dec-07 23:45 -0.6
2019-Dec-07 23:40 059 -0.6
2019-Dec-07 23:35 059 -0.0
2019-Dec-07 23:30 0.6
2019-Dec-07 23:25 -0.0
2019-Dec-07 23:20 059 -0.0
2019-Dec-07 23:15 059 -0.0
2019-Dec-07 23:10 059 -0.0
2019-Dec-07 23:05 059 0.6
2019-Dec-07 23:00 1.1
2019-Dec-07 22:55 1.7
2019-Dec-07 22:50 1.7
2019-Dec-07 22:45 1.7
2019-Dec-07 22:40 1.7
2019-Dec-07 22:35 2.2
2019-Dec-07 22:30 2.2
2019-Dec-07 22:25 2.8
2019-Dec-07 22:20 2.8
2019-Dec-07 22:15 3.3
2019-Dec-07 22:10 3.3
2019-Dec-07 22:05 3.3
2019-Dec-07 22:00 3.9
2019-Dec-07 21:55 4.4
2019-Dec-07 21:50 4.4
2019-Dec-07 21:45 5.0
2019-Dec-07 21:40 5.6
2019-Dec-07 21:35 5.6
2019-Dec-07 21:30 5.6
2019-Dec-07 21:25 059 5.6
2019-Dec-07 21:20 6.1
2019-Dec-07 21:15 6.1
2019-Dec-07 21:10 6.1
2019-Dec-07 21:05 6.1
2019-Dec-07 21:00 058 6.1
2019-Dec-07 20:55 6.1
2019-Dec-07 20:50 059 6.1
2019-Dec-07 20:45 058 6.7
2019-Dec-07 20:40 067 6.7
2019-Dec-07 20:35 167 6.7
2019-Dec-07 20:30 095 6.7
2019-Dec-07 20:25 049 6.7
2019-Dec-07 20:20 047 6.7
2019-Dec-07 20:15 127 0 gusting 1 7.2
2019-Dec-07 20:10 181 7.2
2019-Dec-07 20:05 357 7.2
2019-Dec-07 20:00 029 7.2
2019-Dec-07 19:55 089 7.8
2019-Dec-07 19:50 122 7.8
2019-Dec-07 19:45 026 7.8
2019-Dec-07 19:40 234 7.8
2019-Dec-07 19:35 087 7.8
2019-Dec-07 19:30 064 7.8
2019-Dec-07 19:25 023 7.8
2019-Dec-07 19:20 098 7.2
2019-Dec-07 19:15 040 0 gusting 1 7.2
2019-Dec-07 19:10 061 7.8
2019-Dec-07 19:05 068 7.8
2019-Dec-07 19:00 054 7.8
2019-Dec-07 18:55 041 7.8
2019-Dec-07 18:50 069 7.8
2019-Dec-07 18:45 042 0 gusting 1 7.2
2019-Dec-07 18:40 031 0 gusting 2 7.2
2019-Dec-07 18:35 049 7.2
2019-Dec-07 18:30 048 0 gusting 1 7.2
2019-Dec-07 18:25 039 0 gusting 1 7.2
2019-Dec-07 18:20 013 0 gusting 1 7.2
2019-Dec-07 18:15 037 0 gusting 1 7.2
2019-Dec-07 18:10 073 6.7
2019-Dec-07 18:05 047 0 gusting 1 6.7
2019-Dec-07 18:00 038 0 gusting 2 7.2
2019-Dec-07 17:55 033 0 gusting 1 7.8
2019-Dec-07 17:50 056 0 gusting 1 7.2
2019-Dec-07 17:45 030 0 gusting 1 6.7
2019-Dec-07 17:40 032 0 gusting 2 6.7
2019-Dec-07 17:35 041 0 gusting 1 7.2
2019-Dec-07 17:30 046 0 gusting 1 6.7
2019-Dec-07 17:25 051 0 gusting 2 6.7
2019-Dec-07 17:20 057 6.7
2019-Dec-07 17:15 057 0 gusting 1 6.7
2019-Dec-07 17:10 037 6.1
2019-Dec-07 17:05 067 0 gusting 1 6.1
2019-Dec-07 17:00 034 5.6
2019-Dec-07 16:55 029 0 gusting 1 5.6
2019-Dec-07 16:50 038 0 gusting 1 5.6
2019-Dec-07 16:45 109 5.6
2019-Dec-07 16:42 033 0 gusting 1 5.6
2019-Dec-07 16:35 039 5.6
2019-Dec-07 16:30 045 5.6
2019-Dec-07 16:25 052 5.6
2019-Dec-07 16:20 046 5.6
2019-Dec-07 16:15 055 0 gusting 1 5.0
2019-Dec-07 16:10 034 0 gusting 2 5.0
2019-Dec-07 16:05 033 0 gusting 2 5.6
2019-Dec-07 16:00 031 0 gusting 1 5.6
2019-Dec-07 15:55 032 0 gusting 1 5.6
2019-Dec-07 15:50 056 5.6
2019-Dec-07 15:45 048 0 gusting 1 5.6
2019-Dec-07 15:40 048 5.6
2019-Dec-07 15:35 5.0
2019-Dec-07 15:30 069 0 gusting 1 5.0
2019-Dec-07 15:28 102 5.0
2019-Dec-07 15:21 041 5.0
2019-Dec-07 15:15 049 0 gusting 1 5.0
2019-Dec-07 15:10 042 5.0
2019-Dec-07 15:05 039 5.0
2019-Dec-07 15:00 039 0 gusting 2 5.0
2019-Dec-07 14:55 067 0 gusting 2 4.4
2019-Dec-07 14:50 062 0 gusting 1 4.4
2019-Dec-07 14:45 036 0 gusting 1 4.4
2019-Dec-07 14:40 050 0 gusting 2 3.9
2019-Dec-07 14:35 114 0 gusting 1 3.9
2019-Dec-07 14:32 048 0 gusting 1 3.9
2019-Dec-07 14:25 058 0 gusting 2 3.9
2019-Dec-07 14:20 073 3.9
2019-Dec-07 14:15 105 3.3
2019-Dec-07 14:06 070 3.3
2019-Dec-07 14:00 051 0 gusting 0 3.3
2019-Dec-07 13:56 061 0 gusting 1 2.8
2019-Dec-07 13:50 094 2.8
2019-Dec-07 13:45 120 2.8
2019-Dec-07 13:40 127 2.8
2019-Dec-07 13:35 126 2.2
2019-Dec-07 13:30 126 1.7
2019-Dec-07 13:25 124 1.7
2019-Dec-07 13:23 130 1.7
2019-Dec-07 13:15 141 1.1
2019-Dec-07 13:10 147 -0.0
2019-Dec-07 13:06 -0.6
2019-Dec-07 13:00 143 -1.7
2019-Dec-07 12:50 144 -1.7
2019-Dec-07 12:45 145 -1.7
2019-Dec-07 12:40 145 -1.7
2019-Dec-07 12:35 145 -2.2
2019-Dec-07 12:30 -1.7
2019-Dec-07 12:21 -1.7
2019-Dec-07 12:15 -1.7
2019-Dec-07 12:10 145 -1.7
2019-Dec-07 12:05 -1.7
2019-Dec-07 12:00 -1.7
2019-Dec-07 11:55 145 -1.1
2019-Dec-07 11:50 146 -1.1
2019-Dec-07 11:45 -1.1
2019-Dec-07 11:40 -1.1
2019-Dec-07 11:36 146 -0.6
2019-Dec-07 11:30 -1.1
2019-Dec-07 11:20 -0.6
2019-Dec-07 11:15 158 -0.6
2019-Dec-07 11:05 -0.0
2019-Dec-07 11:00 137 -0.6
2019-Dec-07 10:55 117 0 gusting 0 -0.6
2019-Dec-07 10:50 132 -0.0
2019-Dec-07 10:45 -0.0
2019-Dec-07 10:40 -0.0
2019-Dec-07 10:39 151 0.6
2019-Dec-07 10:30 167 0.6
2019-Dec-07 10:25 198 1.1
2019-Dec-07 10:20 147 1.7
2019-Dec-07 10:15 147 1.1
2019-Dec-07 10:11 126 0 gusting 1 1.7
2019-Dec-07 10:05 150 1.7
2019-Dec-07 10:00 048 1.7
2019-Dec-07 09:55 352 2.2
2019-Dec-07 09:50 024 2.2
2019-Dec-07 09:45 038 2.2
2019-Dec-07 09:40 044 2.2
2019-Dec-07 09:35 029 0 gusting 1 2.2
2019-Dec-07 09:30 036 2.2
2019-Dec-07 09:25 038 2.2
2019-Dec-07 09:20 032 2.2
2019-Dec-07 09:15 001 2.2
2019-Dec-07 09:10 076 2.8
2019-Dec-07 09:05 037 0 gusting 2 2.8
2019-Dec-07 09:00 004 2.8
2019-Dec-07 08:55 041 2.8
2019-Dec-07 08:50 047 2.8
2019-Dec-07 08:45 036 2.8
2019-Dec-07 08:40 022 3.3
2019-Dec-07 08:35 026 3.3
2019-Dec-07 08:30 346 3.3
2019-Dec-07 08:25 095 3.3
2019-Dec-07 08:20 032 3.9
2019-Dec-07 08:15 027 0 gusting 1 3.9
2019-Dec-07 08:10 043 3.9
2019-Dec-07 08:05 001 0 gusting 2 3.9
2019-Dec-07 08:00 015 0 gusting 1 3.9
2019-Dec-07 07:55 035 0 gusting 2 4.4
2019-Dec-07 07:50 018 0 gusting 2 4.4
2019-Dec-07 07:45 039 0 gusting 2 4.4
2019-Dec-07 07:40 017 0 gusting 1 4.4
2019-Dec-07 07:35 032 0 gusting 2 5.0
2019-Dec-07 07:25 042 5.0
2019-Dec-07 07:20 031 5.0
2019-Dec-07 07:15 029 5.0
2019-Dec-07 07:10 017 0 gusting 2 5.6
2019-Dec-07 07:05 013 0 gusting 2 5.6
2019-Dec-07 07:00 008 1 gusting 3 5.6
2019-Dec-07 06:55 018 0 gusting 2 6.1
2019-Dec-07 06:50 038 6.1
2019-Dec-07 06:45 022 0 gusting 1 6.1
2019-Dec-07 06:40 031 6.1
2019-Dec-07 06:35 352 0 gusting 1 6.1
2019-Dec-07 06:30 035 6.1
2019-Dec-07 06:25 056 6.1
2019-Dec-07 06:20 037 6.7
2019-Dec-07 06:15 038 6.7
2019-Dec-07 06:10 027 6.7
2019-Dec-07 06:05 060 6.7
2019-Dec-07 06:00 045 6.7
2019-Dec-07 05:55 036 6.7
2019-Dec-07 05:50 011 0 gusting 3 6.7
2019-Dec-07 05:45 020 0 gusting 1 6.7
2019-Dec-07 05:40 027 6.7
2019-Dec-07 05:35 014 0 gusting 2 6.7
2019-Dec-07 05:30 029 0 gusting 2 6.7
2019-Dec-07 05:25 034 6.7
2019-Dec-07 05:20 023 0 gusting 2 6.7
2019-Dec-07 05:15 022 0 gusting 2 7.2
2019-Dec-07 05:10 010 0 gusting 3 7.2
2019-Dec-07 05:05 348 1 gusting 3 7.2
2019-Dec-07 05:00 341 0 gusting 3 7.8
2019-Dec-07 04:55 028 0 gusting 2 7.8
2019-Dec-07 04:50 019 0 gusting 2 8.3
2019-Dec-07 04:45 011 1 gusting 2 8.3
2019-Dec-07 04:40 025 0 gusting 2 8.9
2019-Dec-07 04:35 026 0 gusting 3 9.4
2019-Dec-07 04:30 026 0 gusting 3 9.4
2019-Dec-07 04:25 036 8.9
2019-Dec-07 04:20 079 8.9
2019-Dec-07 04:15 8.9
2019-Dec-07 04:10 086 8.9
2019-Dec-07 04:05 112 8.9
2019-Dec-07 04:00 039 8.3
2019-Dec-07 03:55 137 8.3
2019-Dec-07 03:50 8.3
2019-Dec-07 03:45 8.3
2019-Dec-07 03:40 7.8
2019-Dec-07 03:35 7.8
2019-Dec-07 03:30 137 8.3
2019-Dec-07 03:25 8.3
2019-Dec-07 03:20 7.8
2019-Dec-07 03:15 8.3
2019-Dec-07 03:10 8.3
2019-Dec-07 03:05 137 8.3
2019-Dec-07 03:00 7.8
2019-Dec-07 02:55 8.3
2019-Dec-07 02:50 7.8
2019-Dec-07 02:45 7.8
2019-Dec-07 02:40 8.3
2019-Dec-07 02:35 8.9
2019-Dec-07 02:30 8.9
2019-Dec-07 02:25 8.9
2019-Dec-07 02:20 9.4
2019-Dec-07 02:15 8.9
2019-Dec-07 02:10 8.9
2019-Dec-07 02:05 8.9
2019-Dec-07 02:00 046 8.9
2019-Dec-07 01:55 061 8.3
2019-Dec-07 01:50 8.9
2019-Dec-07 01:45 8.9
2019-Dec-07 01:40 277 8.9
2019-Dec-07 01:35 277 9.4
2019-Dec-07 01:30 265 0 gusting 1 9.4
2019-Dec-07 01:25 274 1 gusting 2 9.4
2019-Dec-07 01:20 281 1 gusting 2 9.4
2019-Dec-07 01:15 278 1 gusting 3 9.4
2019-Dec-07 01:10 277 1 gusting 2 9.4
2019-Dec-07 01:05 274 1 gusting 1 9.4
2019-Dec-07 01:00 273 1 gusting 3 9.4
2019-Dec-07 00:55 276 1 gusting 2 8.9
2019-Dec-07 00:50 274 1 gusting 2 9.4
2019-Dec-07 00:45 273 1 gusting 3 9.4
2019-Dec-07 00:40 272 1 gusting 3 9.4
2019-Dec-07 00:35 270 1 gusting 3 9.4
2019-Dec-07 00:30 264 2 gusting 4 9.4
2019-Dec-07 00:25 275 3 gusting 5 9.4
2019-Dec-07 00:20 269 3 gusting 4 9.4
2019-Dec-07 00:15 272 3 gusting 6 9.4
2019-Dec-07 00:10 263 2 gusting 4 9.4
2019-Dec-07 00:05 275 2 gusting 3 9.4
2019-Dec-07 00:00 269 2 gusting 3 8.9
2019-Dec-06 23:55 273 1 gusting 2 9.4
2019-Dec-06 23:50 272 1 gusting 2 9.4
2019-Dec-06 23:45 255 0 gusting 1 9.4
2019-Dec-06 23:40 261 0 gusting 2 10.0
2019-Dec-06 23:35 260 0 gusting 1 10.0
2019-Dec-06 23:30 267 0 gusting 1 10.0
2019-Dec-06 23:25 263 0 gusting 1 10.0
2019-Dec-06 23:20 258 0 gusting 1 10.0
2019-Dec-06 23:15 252 0 gusting 1 10.0
2019-Dec-06 23:10 251 0 gusting 2 10.0
2019-Dec-06 23:05 267 1 gusting 3 10.0
2019-Dec-06 23:00 267 1 gusting 2 10.0
2019-Dec-06 22:55 262 1 gusting 3 10.0
2019-Dec-06 22:50 270 1 gusting 3 10.0
2019-Dec-06 22:45 267 2 gusting 4 10.6
2019-Dec-06 22:40 276 2 gusting 5 10.6
2019-Dec-06 22:35 268 2 gusting 3 10.6
2019-Dec-06 22:30 263 2 gusting 4 10.0
2019-Dec-06 22:25 259 2 gusting 5 10.0
2019-Dec-06 22:20 274 1 gusting 3 10.0
2019-Dec-06 22:15 273 2 gusting 3 10.0
2019-Dec-06 22:10 258 2 gusting 4 10.0
2019-Dec-06 22:05 273 2 gusting 3 10.6
2019-Dec-06 22:00 272 2 gusting 3 10.6
2019-Dec-06 21:55 281 2 gusting 4 10.0
2019-Dec-06 21:50 268 2 gusting 3 10.6
2019-Dec-06 21:45 268 2 gusting 4 10.6
2019-Dec-06 21:40 274 2 gusting 4 10.6
2019-Dec-06 21:35 254 2 gusting 5 10.6
2019-Dec-06 21:30 273 2 gusting 4 10.6
2019-Dec-06 21:25 273 2 gusting 4 10.6
2019-Dec-06 21:20 271 2 gusting 4 10.6
2019-Dec-06 21:15 271 3 gusting 6 10.6
2019-Dec-06 21:10 278 3 gusting 6 10.6
2019-Dec-06 21:05 274 2 gusting 5 10.6
2019-Dec-06 21:00 259 2 gusting 3 10.6
2019-Dec-06 20:55 259 2 gusting 4 10.6
2019-Dec-06 20:50 266 2 gusting 5 10.6
2019-Dec-06 20:45 282 3 gusting 5 10.6
2019-Dec-06 20:40 272 2 gusting 5 10.6
2019-Dec-06 20:35 276 2 gusting 5 10.6
2019-Dec-06 20:30 279 4 gusting 6 10.6
2019-Dec-06 20:25 244 2 gusting 4 10.6
2019-Dec-06 20:20 266 2 gusting 5 10.6
2019-Dec-06 20:15 269 2 gusting 3 10.6
2019-Dec-06 20:10 277 2 gusting 6 10.6
2019-Dec-06 20:05 252 2 gusting 6 10.6
2019-Dec-06 20:00 242 1 gusting 4 10.6
2019-Dec-06 19:55 264 1 gusting 3 10.6
2019-Dec-06 19:50 277 3 gusting 9 10.6
2019-Dec-06 19:45 270 2 gusting 4 10.6
2019-Dec-06 19:40 297 2 gusting 6 10.6
2019-Dec-06 19:35 269 2 gusting 5 10.6
2019-Dec-06 19:30 266 2 gusting 6 10.0
2019-Dec-06 19:25 261 2 gusting 6 10.0
2019-Dec-06 19:20 257 1 gusting 2 10.0
2019-Dec-06 19:15 273 1 gusting 4 10.0
2019-Dec-06 19:10 260 1 gusting 4 10.0
2019-Dec-06 19:05 263 1 gusting 3 10.0
2019-Dec-06 19:00 265 1 gusting 3 10.0
2019-Dec-06 18:55 271 1 gusting 5 9.4
2019-Dec-06 18:50 270 1 gusting 4 9.4
2019-Dec-06 18:45 247 1 gusting 3 9.4
2019-Dec-06 18:40 279 0 gusting 1 9.4
2019-Dec-06 18:35 253 2 gusting 5 9.4
2019-Dec-06 18:30 230 1 gusting 3 9.4
2019-Dec-06 18:25 275 2 gusting 4 9.4
2019-Dec-06 18:20 261 0 gusting 2 9.4
2019-Dec-06 18:15 269 1 gusting 4 9.4
2019-Dec-06 18:10 263 2 gusting 4 9.4
2019-Dec-06 18:05 246 0 gusting 3 9.4
2019-Dec-06 18:00 277 2 gusting 3 9.4
2019-Dec-06 17:55 263 1 gusting 3 9.4
2019-Dec-06 17:50 273 2 gusting 5 8.9
2019-Dec-06 17:45 277 2 gusting 4 8.9
2019-Dec-06 17:40 270 1 gusting 3 8.9
2019-Dec-06 17:35 274 1 gusting 3 8.9
2019-Dec-06 17:30 264 0 gusting 2 8.9
2019-Dec-06 17:25 259 2 gusting 3 8.9
2019-Dec-06 17:20 260 1 gusting 4 8.3
2019-Dec-06 17:15 272 0 gusting 1 8.3
2019-Dec-06 17:10 255 1 gusting 3 8.3
2019-Dec-06 17:05 263 0 gusting 2 8.3
2019-Dec-06 17:00 264 1 gusting 3 8.3
2019-Dec-06 16:55 258 0 gusting 1 8.3
2019-Dec-06 16:50 267 0 gusting 4 7.8
2019-Dec-06 16:45 250 0 gusting 2 7.8
2019-Dec-06 16:40 268 2 gusting 5 7.8
2019-Dec-06 16:35 265 1 gusting 3 7.8
2019-Dec-06 16:30 255 0 gusting 2 7.8
2019-Dec-06 16:25 262 1 gusting 2 7.8
2019-Dec-06 16:20 252 0 gusting 2 7.8
2019-Dec-06 16:15 261 1 gusting 4 7.2
2019-Dec-06 16:10 200 0 gusting 2 7.2
2019-Dec-06 16:05 252 0 gusting 2 7.2
2019-Dec-06 16:00 271 1 gusting 3 7.2
2019-Dec-06 15:55 262 1 gusting 3 7.2
2019-Dec-06 15:50 210 0 gusting 1 7.2
2019-Dec-06 15:45 270 1 gusting 3 7.2
2019-Dec-06 15:40 257 0 gusting 2 6.7
2019-Dec-06 15:35 245 1 gusting 4 6.7
2019-Dec-06 15:30 210 0 gusting 3 6.7
2019-Dec-06 15:25 242 0 gusting 2 6.7
2019-Dec-06 15:20 236 0 gusting 3 6.7
2019-Dec-06 15:15 231 0 gusting 1 6.1
2019-Dec-06 15:10 193 6.1
2019-Dec-06 15:05 202 5.6
2019-Dec-06 15:00 253 0 gusting 1 5.6